CDG8734 ZLXY-ZSJN

Flight info

Callsign CDG8734
Flight time 1h 37m
Altitude 37100
Route PUMUR7T PUMUR W286 SUDGO W4 WXI W59 UBSIS UBSIS6W
Aircraft B738/M-SDE2E3FGHIRWXY/LB1

Departure

Time 2026-04-25 22:24
Airport Xi'an Xianyang International Airport (ZLXY)

Arrival

Time 2026-04-26 00:01
Airport Jinan Yaoqiang International Airport (ZSJN)
Time Latitude Longitude Altitude Speed Heading
2026-04-25 21:56 34.44653 108.75771 1575 ft 0 kts 319°
2026-04-25 22:14 34.44648 108.75777 1575 ft 2 kts 319°
2026-04-25 22:14 34.44637 108.75789 1575 ft 2 kts 319°
2026-04-25 22:14 34.44626 108.75800 1575 ft 2 kts 319°
2026-04-25 22:15 34.44614 108.75813 1575 ft 2 kts 319°
2026-04-25 22:15 34.44601 108.75822 1575 ft 2 kts 348°
2026-04-25 22:15 34.44586 108.75822 1575 ft 2 kts 12°
2026-04-25 22:16 34.44562 108.75803 1575 ft 2 kts 54°
2026-04-25 22:16 34.44556 108.75793 1575 ft 0 kts 48°
2026-04-25 22:16 34.44555 108.75793 1575 ft 0 kts 47°
2026-04-25 22:18 34.44561 108.75801 1575 ft 4 kts 48°
2026-04-25 22:19 34.44592 108.75824 1575 ft 5 kts 11°
2026-04-25 22:19 34.44632 108.75891 1575 ft 15 kts 37°
2026-04-25 22:19 34.44725 108.75842 1575 ft 15 kts 319°
2026-04-25 22:19 34.44804 108.75758 1575 ft 17 kts 318°
2026-04-25 22:20 34.44925 108.75629 1575 ft 29 kts 319°
2026-04-25 22:20 34.45071 108.75475 1575 ft 27 kts 317°
2026-04-25 22:20 34.45213 108.75327 1575 ft 25 kts 332°
2026-04-25 22:20 34.45341 108.75422 1575 ft 23 kts 47°
2026-04-25 22:21 34.45451 108.75561 1575 ft 22 kts 45°
2026-04-25 22:21 34.45543 108.75700 1575 ft 20 kts 53°
2026-04-25 22:21 34.45634 108.75832 1575 ft 19 kts 49°
2026-04-25 22:21 34.45722 108.75954 1575 ft 18 kts 50°
2026-04-25 22:22 34.45806 108.76073 1575 ft 19 kts 48°
2026-04-25 22:22 34.45900 108.76202 1575 ft 19 kts 50°
2026-04-25 22:22 34.46008 108.76187 1575 ft 16 kts 316°
2026-04-25 22:22 34.46063 108.76097 1575 ft 7 kts 234°
2026-04-25 22:23 34.46060 108.76094 1575 ft 0 kts 210°
2026-04-25 22:23 34.46035 108.76070 1575 ft 20 kts 222°
2026-04-25 22:23 34.45787 108.75729 1575 ft 85 kts 229°
2026-04-25 22:23 34.45268 108.75014 1575 ft 139 kts 229°
2026-04-25 22:24 34.44540 108.73990 1685 ft 171 kts 230°
2026-04-25 22:24 34.43772 108.72906 2219 ft 174 kts 229°
2026-04-25 22:24 34.42958 108.71765 2747 ft 182 kts 235°
2026-04-25 22:24 34.42625 108.70308 3229 ft 188 kts 278°
2026-04-25 22:25 34.42880 108.68751 3706 ft 191 kts 274°
2026-04-25 22:25 34.42838 108.67151 4276 ft 189 kts 265°
2026-04-25 22:25 34.42665 108.65505 4532 ft 207 kts 261°
2026-04-25 22:25 34.42399 108.63739 4854 ft 223 kts 261°
2026-04-25 22:26 34.42143 108.61826 5199 ft 237 kts 261°
2026-04-25 22:26 34.41912 108.59834 5738 ft 242 kts 262°
2026-04-25 22:26 34.41685 108.57795 6303 ft 250 kts 261°
2026-04-25 22:26 34.41394 108.55735 7108 ft 247 kts 258°
2026-04-25 22:27 34.41018 108.53746 7817 ft 247 kts 258°
2026-04-25 22:27 34.40622 108.51730 8459 ft 250 kts 258°
2026-04-25 22:27 34.40236 108.49670 9103 ft 252 kts 260°
2026-04-25 22:27 34.39868 108.47620 9677 ft 254 kts 260°
2026-04-25 22:28 34.39249 108.45558 9970 ft 272 kts 240°
2026-04-25 22:28 34.37902 108.43861 10339 ft 290 kts 216°
2026-04-25 22:28 34.36029 108.42815 10690 ft 309 kts 197°
2026-04-25 22:28 34.33850 108.42461 11027 ft 325 kts 179°
2026-04-25 22:29 34.31555 108.42911 11390 ft 341 kts 167°
2026-04-25 22:29 34.29213 108.43743 11691 ft 358 kts 163°
2026-04-25 22:29 34.26810 108.44685 12045 ft 372 kts 163°
2026-04-25 22:30 34.21675 108.46635 12687 ft 401 kts 164°
2026-04-25 22:30 34.18964 108.47611 13010 ft 415 kts 165°
2026-04-25 22:30 34.16175 108.48663 13422 ft 426 kts 161°
2026-04-25 22:30 34.14338 108.49598 13740 ft 433 kts 154°
2026-04-25 22:31 34.11150 108.52576 14542 ft 440 kts 131°
2026-04-25 22:31 34.09436 108.55629 15074 ft 445 kts 116°
2026-04-25 22:31 34.08193 108.59047 15640 ft 450 kts 111°
2026-04-25 22:31 34.07037 108.62558 16166 ft 456 kts 110°
2026-04-25 22:32 34.05882 108.66173 16763 ft 461 kts 110°
2026-04-25 22:32 34.04744 108.69755 17254 ft 467 kts 110°
2026-04-25 22:32 34.03566 108.73449 17849 ft 471 kts 110°
2026-04-25 22:32 34.02388 108.77113 18413 ft 476 kts 110°
2026-04-25 22:33 34.01186 108.80820 19071 ft 478 kts 110°
2026-04-25 22:33 33.99973 108.84537 19677 ft 482 kts 110°
2026-04-25 22:33 33.98730 108.88326 20297 ft 485 kts 110°
2026-04-25 22:33 33.97487 108.92100 20846 ft 489 kts 110°
2026-04-25 22:34 33.96238 108.95886 21397 ft 493 kts 110°
2026-04-25 22:34 33.94956 108.99763 21958 ft 496 kts 110°
2026-04-25 22:34 33.93689 109.03593 22453 ft 501 kts 110°
2026-04-25 22:34 33.92398 109.07489 22922 ft 506 kts 110°
2026-04-25 22:35 33.91085 109.11447 23441 ft 509 kts 110°
2026-04-25 22:35 33.89774 109.15395 23893 ft 513 kts 110°
2026-04-25 22:35 33.88447 109.19390 24333 ft 517 kts 110°
2026-04-25 22:35 33.87110 109.23411 24768 ft 521 kts 110°
2026-04-25 22:36 33.85757 109.27472 25172 ft 525 kts 110°
2026-04-25 22:36 33.84404 109.31527 25822 ft 522 kts 109°
2026-04-25 22:36 33.83064 109.35540 26503 ft 520 kts 109°
2026-04-25 22:36 33.81721 109.39534 27095 ft 519 kts 110°
2026-04-25 22:37 33.80228 109.43468 27598 ft 520 kts 114°
2026-04-25 22:37 33.78380 109.47191 28075 ft 523 kts 123°
2026-04-25 22:37 33.76096 109.50600 28549 ft 524 kts 132°
2026-04-25 22:37 33.73454 109.53576 28996 ft 525 kts 141°
2026-04-25 22:38 33.70446 109.56110 29472 ft 524 kts 149°
2026-04-25 22:38 33.67224 109.58089 29882 ft 523 kts 159°
2026-04-25 22:38 33.63815 109.59518 30267 ft 522 kts 166°
2026-04-25 22:38 33.60268 109.60510 30659 ft 520 kts 173°
2026-04-25 22:39 33.56681 109.61099 31039 ft 518 kts 179°
2026-04-25 22:39 33.53120 109.61298 31476 ft 514 kts 183°
2026-04-25 22:39 33.49504 109.61439 31944 ft 514 kts 180°
2026-04-25 22:39 33.45933 109.61925 32368 ft 517 kts 174°
2026-04-25 22:40 33.42391 109.62807 32754 ft 520 kts 168°
2026-04-25 22:40 33.38926 109.64077 33084 ft 523 kts 162°
2026-04-25 22:40 33.35535 109.65742 33414 ft 526 kts 158°
2026-04-25 22:40 33.32281 109.67770 33691 ft 528 kts 151°
2026-04-25 22:41 33.29157 109.70180 34025 ft 530 kts 145°
2026-04-25 22:41 33.26266 109.72884 34308 ft 532 kts 139°
2026-04-25 22:41 33.23571 109.75912 34610 ft 532 kts 134°
2026-04-25 22:41 33.21112 109.79229 34970 ft 530 kts 127°
2026-04-25 22:42 33.18917 109.82803 35287 ft 530 kts 122°
2026-04-25 22:42 33.17016 109.86562 35401 ft 532 kts 115°
2026-04-25 22:42 33.15418 109.90498 35591 ft 530 kts 109°
2026-04-25 22:42 33.14120 109.94621 35881 ft 527 kts 103°
2026-04-25 22:43 33.13164 109.98779 36143 ft 523 kts 98°
2026-04-25 22:43 33.12535 110.03017 36408 ft 518 kts 91°
2026-04-25 22:43 33.12238 110.07279 36561 ft 516 kts 86°
2026-04-25 22:43 33.12277 110.11525 36715 ft 511 kts 79°
2026-04-25 22:44 33.12647 110.15694 36920 ft 505 kts 73°
2026-04-25 22:44 33.13363 110.19771 37063 ft 495 kts 64°
2026-04-25 22:44 33.14780 110.23400 37090 ft 470 kts 44°
2026-04-25 22:44 33.16916 110.26154 37101 ft 448 kts 29°
2026-04-25 22:45 33.22036 110.30193 37100 ft 438 kts 20°
2026-04-25 22:45 33.27308 110.33727 37117 ft 436 kts 19°
2026-04-25 22:46 33.32598 110.37209 37103 ft 435 kts 19°
2026-04-25 22:46 33.37930 110.40712 37090 ft 435 kts 19°
2026-04-25 22:47 33.43160 110.44401 37080 ft 438 kts 22°
2026-04-25 22:47 33.48474 110.47679 37075 ft 426 kts 12°
2026-04-25 22:48 33.53919 110.50744 37070 ft 440 kts 22°
2026-04-25 22:48 33.59096 110.54552 37078 ft 436 kts 19°
2026-04-25 22:49 33.64444 110.57886 37081 ft 430 kts 16°
2026-04-25 22:49 33.69835 110.61010 37102 ft 431 kts 16°
2026-04-25 22:50 33.75281 110.64120 37120 ft 432 kts 16°
2026-04-25 22:50 33.80693 110.67217 37111 ft 429 kts 16°
2026-04-25 22:51 33.86105 110.70320 37095 ft 431 kts 16°
2026-04-25 22:51 33.91552 110.73453 37089 ft 431 kts 17°
2026-04-25 22:52 33.96944 110.76562 37082 ft 430 kts 17°
2026-04-25 22:52 34.01400 110.79137 37073 ft 428 kts 17°
2026-04-25 22:53 34.07692 110.82770 37074 ft 430 kts 17°
2026-04-25 22:53 34.13123 110.85912 37083 ft 431 kts 17°
2026-04-25 22:54 34.18536 110.89055 37082 ft 431 kts 17°
2026-04-25 22:54 34.23897 110.92172 37082 ft 430 kts 17°
2026-04-25 22:55 34.29300 110.95319 37087 ft 428 kts 17°
2026-04-25 22:55 34.34664 110.98444 37076 ft 429 kts 17°
2026-04-25 22:56 34.40006 111.01771 37076 ft 438 kts 23°
2026-04-25 22:56 34.42475 111.03992 37073 ft 452 kts 33°
2026-04-25 22:56 34.44662 111.06830 37074 ft 463 kts 43°
2026-04-25 22:57 34.48324 111.13312 37085 ft 471 kts 49°
2026-04-25 22:57 34.51729 111.20096 37098 ft 471 kts 50°
2026-04-25 22:58 34.55107 111.26938 37095 ft 472 kts 50°
2026-04-25 22:58 34.58488 111.33747 37063 ft 470 kts 49°
2026-04-25 22:59 34.61869 111.40511 37052 ft 472 kts 50°
2026-04-25 22:59 34.65317 111.47382 37039 ft 472 kts 50°
2026-04-25 23:00 34.68726 111.54174 37030 ft 470 kts 49°
2026-04-25 23:00 34.72118 111.60948 37036 ft 471 kts 50°
2026-04-25 23:01 34.75537 111.67770 37035 ft 473 kts 50°
2026-04-25 23:01 34.78926 111.74562 37030 ft 471 kts 50°
2026-04-25 23:02 34.82320 111.81367 37033 ft 472 kts 50°
2026-04-25 23:02 34.85725 111.88201 37033 ft 475 kts 50°
2026-04-25 23:03 34.89137 111.95061 37037 ft 473 kts 50°
2026-04-25 23:03 34.92556 112.01868 37043 ft 474 kts 50°
2026-04-25 23:04 34.95435 112.07587 37041 ft 472 kts 50°
2026-04-25 23:04 34.99435 112.15556 37032 ft 472 kts 50°
2026-04-25 23:05 35.02850 112.22377 37026 ft 471 kts 50°
2026-04-25 23:05 35.06245 112.29171 37022 ft 472 kts 50°
2026-04-25 23:06 35.09657 112.36010 37024 ft 473 kts 50°
2026-04-25 23:06 35.13044 112.42828 37030 ft 471 kts 50°
2026-04-25 23:07 35.16454 112.49698 37040 ft 474 kts 50°
2026-04-25 23:07 35.19850 112.56556 37049 ft 472 kts 50°
2026-04-25 23:08 35.23251 112.63397 37063 ft 471 kts 50°
2026-04-25 23:08 35.26662 112.70184 37069 ft 470 kts 50°
2026-04-25 23:09 35.30087 112.77000 37072 ft 471 kts 50°
2026-04-25 23:09 35.33546 112.83892 37057 ft 474 kts 50°
2026-04-25 23:10 35.36964 112.90742 37052 ft 471 kts 50°
2026-04-25 23:10 35.40375 112.97594 37044 ft 472 kts 50°
2026-04-25 23:11 35.43775 113.04436 37051 ft 471 kts 50°
2026-04-25 23:11 35.47181 113.11304 37056 ft 473 kts 50°
2026-04-25 23:12 35.50586 113.18195 37075 ft 471 kts 50°
2026-04-25 23:12 35.53964 113.25039 37098 ft 470 kts 50°
2026-04-25 23:13 35.57344 113.31895 37099 ft 470 kts 50°
2026-04-25 23:13 35.60706 113.38728 37111 ft 471 kts 50°
2026-04-25 23:14 35.64126 113.45596 37119 ft 470 kts 49°
2026-04-25 23:14 35.67558 113.52371 37121 ft 468 kts 49°
2026-04-25 23:15 35.71005 113.59157 37085 ft 470 kts 49°
2026-04-25 23:15 35.74466 113.65994 37050 ft 470 kts 50°
2026-04-25 23:16 35.77896 113.72798 37017 ft 471 kts 50°
2026-04-25 23:16 35.81346 113.79662 37002 ft 471 kts 50°
2026-04-25 23:17 35.84777 113.86508 36988 ft 471 kts 50°
2026-04-25 23:17 35.88210 113.93380 36995 ft 471 kts 50°
2026-04-25 23:18 35.91647 114.00270 36981 ft 470 kts 50°
2026-04-25 23:18 35.95048 114.07094 36972 ft 472 kts 50°
2026-04-25 23:19 35.98472 114.13981 36962 ft 470 kts 50°
2026-04-25 23:19 36.01898 114.20873 36956 ft 471 kts 50°
2026-04-25 23:20 36.05333 114.27810 36955 ft 471 kts 50°
2026-04-25 23:20 36.08749 114.34724 36950 ft 473 kts 50°
2026-04-25 23:21 36.12179 114.41674 36941 ft 475 kts 50°
2026-04-25 23:21 36.15604 114.48636 36936 ft 474 kts 50°
2026-04-25 23:22 36.19034 114.55617 36941 ft 476 kts 51°
2026-04-25 23:23 36.24166 114.66087 36938 ft 477 kts 51°
2026-04-25 23:23 36.27583 114.73079 36949 ft 476 kts 51°
2026-04-25 23:24 36.30981 114.80133 36948 ft 479 kts 52°
2026-04-25 23:24 36.34312 114.87251 36944 ft 481 kts 54°
2026-04-25 23:25 36.37002 114.94958 36953 ft 492 kts 64°
2026-04-25 23:25 36.38996 115.03075 36955 ft 495 kts 68°
2026-04-25 23:26 36.40763 115.11370 36960 ft 495 kts 69°
2026-04-25 23:26 36.42486 115.19610 36948 ft 494 kts 68°
2026-04-25 23:27 36.44751 115.27554 36958 ft 486 kts 60°
2026-04-25 23:27 36.47466 115.35181 36962 ft 486 kts 58°
2026-04-25 23:28 36.50285 115.42784 36956 ft 485 kts 58°
2026-04-25 23:28 36.53112 115.50511 36963 ft 487 kts 59°
2026-04-25 23:29 36.55856 115.58157 36707 ft 485 kts 59°
2026-04-25 23:29 36.57202 115.61951 36265 ft 480 kts 59°
2026-04-25 23:29 36.58536 115.65727 35679 ft 478 kts 60°
2026-04-25 23:29 36.59863 115.69488 34992 ft 479 kts 60°
2026-04-25 23:30 36.61195 115.73265 34249 ft 480 kts 61°
2026-04-25 23:30 36.62533 115.77067 33491 ft 481 kts 61°
2026-04-25 23:30 36.63887 115.80920 32676 ft 483 kts 62°
2026-04-25 23:30 36.65222 115.84726 31849 ft 485 kts 62°
2026-04-25 23:31 36.66565 115.88558 31002 ft 487 kts 62°
2026-04-25 23:31 36.67915 115.92417 30129 ft 489 kts 62°
2026-04-25 23:31 36.69266 115.96283 29243 ft 492 kts 62°
2026-04-25 23:31 36.70634 116.00206 28303 ft 495 kts 63°
2026-04-25 23:32 36.71990 116.04092 27323 ft 499 kts 63°
2026-04-25 23:32 36.73373 116.08063 26265 ft 504 kts 63°
2026-04-25 23:32 36.74770 116.12082 25142 ft 509 kts 63°
2026-04-25 23:32 36.76163 116.16090 24190 ft 510 kts 63°
2026-04-25 23:33 36.77570 116.20154 23467 ft 505 kts 64°
2026-04-25 23:33 36.78837 116.24181 22726 ft 503 kts 68°
2026-04-25 23:33 36.79810 116.28275 21953 ft 490 kts 74°
2026-04-25 23:33 36.80402 116.32391 21229 ft 474 kts 80°
2026-04-25 23:34 36.80735 116.36413 20480 ft 460 kts 83°
2026-04-25 23:34 36.80925 116.40314 19738 ft 450 kts 85°
2026-04-25 23:34 36.81052 116.44215 19008 ft 452 kts 85°
2026-04-25 23:34 36.81154 116.48110 18246 ft 453 kts 85°
2026-04-25 23:35 36.81246 116.52032 17454 ft 451 kts 85°
2026-04-25 23:35 36.81337 116.55901 16646 ft 441 kts 85°
2026-04-25 23:35 36.81427 116.59576 15971 ft 423 kts 85°
2026-04-25 23:35 36.81522 116.63155 15297 ft 408 kts 85°
2026-04-25 23:36 36.81627 116.66722 14648 ft 415 kts 86°
2026-04-25 23:36 36.81738 116.70286 13925 ft 412 kts 86°
2026-04-25 23:36 36.81850 116.73810 13258 ft 408 kts 86°
2026-04-25 23:36 36.81964 116.77352 12547 ft 405 kts 86°
2026-04-25 23:37 36.82075 116.80817 11861 ft 402 kts 86°
2026-04-25 23:37 36.82184 116.84252 11317 ft 396 kts 86°
2026-04-25 23:37 36.82290 116.87655 10987 ft 383 kts 86°
2026-04-25 23:37 36.82389 116.90888 10813 ft 368 kts 86°
2026-04-25 23:38 36.82474 116.94011 10661 ft 353 kts 87°
2026-04-25 23:38 36.82346 116.96992 10502 ft 341 kts 97°
2026-04-25 23:38 36.81631 116.99763 10346 ft 331 kts 120°
2026-04-25 23:38 36.80128 117.01853 10195 ft 319 kts 144°
2026-04-25 23:39 36.78184 117.03046 10036 ft 308 kts 164°
2026-04-25 23:39 36.76114 117.03542 9704 ft 303 kts 176°
2026-04-25 23:39 36.73999 117.03670 9316 ft 302 kts 181°
2026-04-25 23:39 36.71926 117.03655 8951 ft 300 kts 182°
2026-04-25 23:40 36.69843 117.03607 8578 ft 298 kts 183°
2026-04-25 23:40 36.67755 117.03571 8210 ft 296 kts 183°
2026-04-25 23:40 36.65713 117.03554 7859 ft 294 kts 182°
2026-04-25 23:40 36.63680 117.03549 7506 ft 292 kts 182°
2026-04-25 23:41 36.61655 117.03549 7078 ft 293 kts 182°
2026-04-25 23:41 36.59613 117.03565 6840 ft 286 kts 180°
2026-04-25 23:41 36.57697 117.03875 6750 ft 277 kts 166°
2026-04-25 23:41 36.56039 117.05019 6642 ft 270 kts 135°
2026-04-25 23:42 36.55068 117.06950 6388 ft 267 kts 107°
2026-04-25 23:42 36.54820 117.09229 6078 ft 260 kts 88°
2026-04-25 23:42 36.54861 117.11429 5805 ft 253 kts 89°
2026-04-25 23:42 36.54869 117.13595 5572 ft 248 kts 90°
2026-04-25 23:43 36.54860 117.15725 5295 ft 249 kts 90°
2026-04-25 23:43 36.54911 117.17873 5022 ft 249 kts 83°
2026-04-25 23:43 36.55441 117.19896 4776 ft 247 kts 52°
2026-04-25 23:43 36.56706 117.21244 4592 ft 241 kts 20°
2026-04-25 23:44 36.58306 117.21677 4316 ft 232 kts 357°
2026-04-25 23:44 36.59920 117.21646 4065 ft 229 kts 352°
2026-04-25 23:44 36.61502 117.21584 3828 ft 230 kts 354°
2026-04-25 23:44 36.63112 117.21572 3593 ft 231 kts 355°
2026-04-25 23:45 36.64722 117.21597 3344 ft 231 kts 355°
2026-04-25 23:45 36.66331 117.21605 3102 ft 231 kts 354°
2026-04-25 23:45 36.67931 117.21594 2883 ft 228 kts 354°
2026-04-25 23:45 36.69507 117.21590 2641 ft 225 kts 355°
2026-04-25 23:46 36.71060 117.21601 2366 ft 219 kts 356°
2026-04-25 23:46 36.72559 117.21600 2073 ft 213 kts 356°
2026-04-25 23:46 36.74014 117.21591 1797 ft 201 kts 356°
2026-04-25 23:46 36.75348 117.21600 1635 ft 180 kts 356°
2026-04-25 23:47 36.76574 117.21608 1622 ft 178 kts 355°
2026-04-25 23:47 36.77804 117.21594 1349 ft 173 kts 356°
2026-04-25 23:47 36.78997 117.21598 1089 ft 168 kts 357°
2026-04-25 23:47 36.80189 117.21605 932 ft 172 kts 357°
2026-04-25 23:48 36.81387 117.21600 664 ft 168 kts 358°
2026-04-25 23:48 36.82532 117.21607 421 ft 163 kts 358°
2026-04-25 23:48 36.83662 117.21597 207 ft 159 kts 359°
2026-04-25 23:48 36.84738 117.21609 85 ft 148 kts 360°
2026-04-25 23:49 36.85869 117.21637 387 ft 171 kts
2026-04-25 23:49 36.87178 117.21713 786 ft 203 kts
2026-04-25 23:49 36.88559 117.21787 1075 ft 201 kts 352°
2026-04-25 23:49 36.89958 117.21580 1611 ft 209 kts 350°
2026-04-25 23:50 36.91424 117.21496 1654 ft 210 kts 356°
2026-04-25 23:50 36.92865 117.21522 1637 ft 205 kts 357°
2026-04-25 23:50 36.94302 117.21547 1639 ft 208 kts 356°
2026-04-25 23:50 36.95760 117.21552 1634 ft 207 kts 355°
2026-04-25 23:51 36.97196 117.21550 1635 ft 206 kts 355°
2026-04-25 23:51 36.98611 117.21832 1634 ft 211 kts 22°
2026-04-25 23:51 36.99794 117.22934 1637 ft 213 kts 52°
2026-04-25 23:51 37.00567 117.24470 1637 ft 207 kts 70°
2026-04-25 23:52 37.00921 117.26172 1644 ft 199 kts 96°
2026-04-25 23:52 37.00669 117.27811 1649 ft 189 kts 120°
2026-04-25 23:52 37.00059 117.29224 1638 ft 176 kts 134°
2026-04-25 23:52 36.99260 117.30263 1514 ft 159 kts 152°
2026-04-25 23:53 36.98303 117.30788 1325 ft 144 kts 174°
2026-04-25 23:53 36.97326 117.30961 1102 ft 138 kts 180°
2026-04-25 23:53 36.96298 117.31023 1190 ft 154 kts 181°
2026-04-25 23:53 36.95296 117.31069 1157 ft 138 kts 181°
2026-04-25 23:54 36.94385 117.31105 1165 ft 120 kts 182°
2026-04-25 23:54 36.93522 117.31129 1224 ft 128 kts 182°
2026-04-25 23:54 36.92614 117.31163 1377 ft 134 kts 182°
2026-04-25 23:54 36.91676 117.31184 1383 ft 134 kts 183°
2026-04-25 23:55 36.90742 117.31196 1378 ft 135 kts 182°
2026-04-25 23:55 36.89800 117.31266 1446 ft 136 kts 178°
2026-04-25 23:55 36.88839 117.31387 1353 ft 139 kts 178°
2026-04-25 23:55 36.87855 117.31473 1261 ft 143 kts 179°
2026-04-25 23:56 36.86900 117.31557 1143 ft 136 kts 178°
2026-04-25 23:56 36.85978 117.31636 1045 ft 132 kts 180°
2026-04-25 23:56 36.85055 117.31681 1091 ft 131 kts 181°
2026-04-25 23:56 36.84150 117.31707 1192 ft 130 kts 182°
2026-04-25 23:57 36.83239 117.31712 1239 ft 133 kts 184°
2026-04-25 23:57 36.82305 117.31693 1284 ft 133 kts 185°
2026-04-25 23:57 36.81412 117.31434 1289 ft 134 kts 206°
2026-04-25 23:57 36.80675 117.30699 1219 ft 137 kts 225°
2026-04-25 23:58 36.80109 117.29729 1118 ft 138 kts 234°
2026-04-25 23:58 36.79616 117.28721 1148 ft 134 kts 236°
2026-04-25 23:58 36.79197 117.27707 1112 ft 132 kts 240°
2026-04-25 23:58 36.78834 117.26616 1168 ft 136 kts 244°
2026-04-25 23:59 36.78527 117.25474 1126 ft 142 kts 248°
2026-04-25 23:59 36.78354 117.24279 1136 ft 145 kts 268°
2026-04-25 23:59 36.78803 117.23108 1087 ft 154 kts 301°
2026-04-25 23:59 36.79519 117.22063 956 ft 161 kts 310°
2026-04-26 00:00 36.80530 117.21449 837 ft 170 kts 355°
2026-04-26 00:00 36.81717 117.21558 625 ft 170 kts
2026-04-26 00:00 36.82891 117.21621 375 ft 164 kts 358°
2026-04-26 00:00 36.84011 117.21602 139 ft 158 kts 360°
2026-04-26 00:01 36.85051 117.21617 83 ft 137 kts 358°
2026-04-26 00:01 36.85780 117.21607 83 ft 72 kts 356°
2026-04-26 00:01 36.86098 117.21598 83 ft 31 kts 359°
2026-04-26 00:01 36.86326 117.21526 83 ft 28 kts 335°
2026-04-26 00:02 36.86446 117.21410 83 ft 8 kts 234°
2026-04-26 00:02 36.86387 117.21375 83 ft 10 kts 192°
2026-04-26 00:02 36.86320 117.21373 83 ft 9 kts 189°
2026-04-26 00:02 36.86292 117.21315 83 ft 7 kts 251°
2026-04-26 00:03 36.86254 117.21277 83 ft 7 kts 193°
2026-04-26 00:03 36.86194 117.21273 83 ft 12 kts 179°
2026-04-26 00:03 36.86089 117.21275 83 ft 15 kts 180°
2026-04-26 00:03 36.86057 117.21255 83 ft 0 kts 266°
2026-04-26 00:04 36.86049 117.21191 83 ft 11 kts 269°
2026-04-26 00:04 36.86049 117.21168 83 ft 0 kts 268°